Time,TemperatureF,DewpointF,PressureIn,WindDirection,WindDirectionDegrees,WindSpeedMPH,WindSpeedGustMPH,Humidity,HourlyPrecipIn,Conditions,Clouds,dailyrainin,SoftwareType,DateUTC
2013-11-05 00:01:00,37.9,0.0,30.54,NNE,23,3.0,7.0,0,0.00,,,0.00,Weather View 32 v70,2013-11-05 05:01:00,
2013-11-05 00:02:00,37.8,0.0,30.55,NE,45,1.0,7.0,0,0.00,,,0.00,Weather View 32 v70,2013-11-05 05:02:00,
2013-11-05 00:07:00,37.6,0.0,30.53,NW,315,0.0,7.0,0,0.00,,,0.00,Weather View 32 v70,2013-11-05 05:07:00,
2013-11-05 00:12:00,37.6,0.0,30.52,NW,315,0.0,7.0,0,0.00,,,0.00,Weather View 32 v70,2013-11-05 05:12:00,
2013-11-05 00:17:00,37.6,0.0,30.55,NNW,338,0.0,7.0,0,0.00,,,0.00,Weather View 32 v70,2013-11-05 05:17:00,
2013-11-05 00:22:00,37.8,0.0,30.55,NNW,338,2.0,7.0,0,0.00,,,0.00,Weather View 32 v70,2013-11-05 05:22:00,
2013-11-05 00:27:00,37.8,0.0,30.54,NW,315,1.0,7.0,0,0.00,,,0.00,Weather View 32 v70,2013-11-05 05:27:00,
2013-11-05 00:32:00,37.9,0.0,30.54,NNW,338,2.0,7.0,0,0.00,,,0.00,Weather View 32 v70,2013-11-05 05:32:00,
2013-11-05 00:37:00,37.9,0.0,30.56,NW,315,0.0,7.0,0,0.00,,,0.00,Weather View 32 v70,2013-11-05 05:37:00,
2013-11-05 00:42:00,37.8,0.0,30.55,NW,315,0.0,7.0,0,0.00,,,0.00,Weather View 32 v70,2013-11-05 05:42:00,
2013-11-05 00:47:00,37.8,0.0,30.53,NNE,23,3.0,5.0,0,0.00,,,0.00,Weather View 32 v70,2013-11-05 05:47:00,
2013-11-05 00:52:00,37.4,0.0,30.56,NNW,338,2.0,5.0,0,0.00,,,0.00,Weather View 32 v70,2013-11-05 05:52:00,
2013-11-05 00:57:00,37.6,0.0,30.54,NW,315,0.0,5.0,0,0.00,,,0.00,Weather View 32 v70,2013-11-05 05:57:00,
2013-11-05 01:02:00,37.4,0.0,30.54,NNW,338,1.0,6.0,0,0.00,,,0.00,Weather View 32 v70,2013-11-05 06:02:00,
2013-11-05 01:07:00,37.4,0.0,30.55,NW,315,1.0,6.0,0,0.00,,,0.00,Weather View 32 v70,2013-11-05 06:07:00,
2013-11-05 01:12:00,37.2,0.0,30.55,NNW,338,3.0,6.0,0,0.00,,,0.00,Weather View 32 v70,2013-11-05 06:12:00,
2013-11-05 01:17:00,37.2,0.0,30.55,NNW,338,4.0,6.0,0,0.00,,,0.00,Weather View 32 v70,2013-11-05 06:17:00,
2013-11-05 01:22:00,37.2,0.0,30.55,NW,315,2.0,6.0,0,0.00,,,0.00,Weather View 32 v70,2013-11-05 06:22:00,
2013-11-05 01:27:00,37.2,0.0,30.55,NW,315,1.0,6.0,0,0.00,,,0.00,Weather View 32 v70,2013-11-05 06:27:00,
2013-11-05 01:32:00,37.0,0.0,30.55,NW,315,1.0,6.0,0,0.00,,,0.00,Weather View 32 v70,2013-11-05 06:32:00,
2013-11-05 01:37:00,37.4,0.0,30.52,North,0,3.0,6.0,0,0.00,,,0.00,Weather View 32 v70,2013-11-05 06:37:00,
2013-11-05 01:42:00,37.0,0.0,30.52,North,0,3.0,6.0,0,0.00,,,0.00,Weather View 32 v70,2013-11-05 06:42:00,
2013-11-05 01:47:00,37.0,0.0,30.56,NNE,23,3.0,6.0,0,0.00,,,0.00,Weather View 32 v70,2013-11-05 06:47:00,
2013-11-05 01:52:00,37.0,0.0,30.55,NW,315,1.0,6.0,0,0.00,,,0.00,Weather View 32 v70,2013-11-05 06:52:00,
2013-11-05 01:57:00,36.9,0.0,30.55,North,0,1.0,6.0,0,0.00,,,0.00,Weather View 32 v70,2013-11-05 06:57:00,
2013-11-05 02:02:00,36.9,0.0,30.54,NW,315,2.0,6.0,0,0.00,,,0.00,Weather View 32 v70,2013-11-05 07:02:00,
2013-11-05 02:07:00,36.7,0.0,30.55,NNW,338,1.0,6.0,0,0.00,,,0.00,Weather View 32 v70,2013-11-05 07:07:00,
2013-11-05 02:12:00,36.7,0.0,30.55,WNW,293,1.0,6.0,0,0.00,,,0.00,Weather View 32 v70,2013-11-05 07:12:00,
2013-11-05 02:17:00,36.5,0.0,30.55,NNE,23,2.0,7.0,0,0.00,,,0.00,Weather View 32 v70,2013-11-05 07:17:00,
2013-11-05 02:22:00,36.3,0.0,30.54,NW,315,0.0,7.0,0,0.00,,,0.00,Weather View 32 v70,2013-11-05 07:22:00,
2013-11-05 02:27:00,36.5,0.0,30.55,NNW,338,3.0,7.0,0,0.00,,,0.00,Weather View 32 v70,2013-11-05 07:27:00,
2013-11-05 02:32:00,36.3,0.0,30.53,WNW,293,0.0,7.0,0,0.00,,,0.00,Weather View 32 v70,2013-11-05 07:32:00,
2013-11-05 02:37:00,36.1,0.0,30.53,NW,315,2.0,7.0,0,0.00,,,0.00,Weather View 32 v70,2013-11-05 07:37:00,
2013-11-05 02:42:00,36.1,0.0,30.53,North,0,3.0,7.0,0,0.00,,,0.00,Weather View 32 v70,2013-11-05 07:42:00,
2013-11-05 02:47:00,36.1,0.0,30.53,NNE,23,2.0,7.0,0,0.00,,,0.00,Weather View 32 v70,2013-11-05 07:47:00,
2013-11-05 02:52:00,36.1,0.0,30.54,WNW,293,1.0,7.0,0,0.00,,,0.00,Weather View 32 v70,2013-11-05 07:52:00,
2013-11-05 02:57:00,36.0,0.0,30.54,NNW,338,2.0,7.0,0,0.00,,,0.00,Weather View 32 v70,2013-11-05 07:57:00,
2013-11-05 03:02:00,36.3,0.0,30.51,WNW,293,0.0,7.0,0,0.00,,,0.00,Weather View 32 v70,2013-11-05 08:02:00,
2013-11-05 03:07:00,36.5,0.0,30.52,WNW,293,0.0,7.0,0,0.00,,,0.00,Weather View 32 v70,2013-11-05 08:07:00,
2013-11-05 03:12:00,36.5,0.0,30.53,NNE,23,4.0,8.0,0,0.00,,,0.00,Weather View 32 v70,2013-11-05 08:12:00,
2013-11-05 03:17:00,36.5,0.0,30.49,North,0,2.0,8.0,0,0.00,,,0.00,Weather View 32 v70,2013-11-05 08:17:00,
2013-11-05 03:22:00,36.3,0.0,30.47,NNE,23,1.0,8.0,0,0.00,,,0.00,Weather View 32 v70,2013-11-05 08:22:00,
2013-11-05 03:27:00,36.1,0.0,30.51,NNW,338,2.0,8.0,0,0.00,,,0.00,Weather View 32 v70,2013-11-05 08:27:00,
2013-11-05 03:32:00,36.0,0.0,30.52,North,0,0.0,8.0,0,0.00,,,0.00,Weather View 32 v70,2013-11-05 08:32:00,
2013-11-05 03:37:00,36.1,0.0,30.50,NNE,23,2.0,8.0,0,0.00,,,0.00,Weather View 32 v70,2013-11-05 08:37:00,
2013-11-05 03:42:00,36.1,0.0,30.53,NNW,338,3.0,8.0,0,0.00,,,0.00,Weather View 32 v70,2013-11-05 08:42:00,
2013-11-05 03:47:00,36.1,0.0,30.52,North,0,2.0,8.0,0,0.00,,,0.00,Weather View 32 v70,2013-11-05 08:47:00,
2013-11-05 03:52:00,36.1,0.0,30.54,NNW,338,2.0,8.0,0,0.00,,,0.00,Weather View 32 v70,2013-11-05 08:52:00,
2013-11-05 03:57:00,36.1,0.0,30.52,NNW,338,0.0,8.0,0,0.00,,,0.00,Weather View 32 v70,2013-11-05 08:57:00,
2013-11-05 04:02:00,36.1,0.0,30.53,NNW,338,0.0,8.0,0,0.00,,,0.00,Weather View 32 v70,2013-11-05 09:02:00,
2013-11-05 04:07:00,36.1,0.0,30.54,North,0,2.0,8.0,0,0.00,,,0.00,Weather View 32 v70,2013-11-05 09:07:00,
2013-11-05 04:12:00,36.1,0.0,30.54,NNE,23,1.0,7.0,0,0.00,,,0.00,Weather View 32 v70,2013-11-05 09:12:00,
2013-11-05 04:17:00,36.3,0.0,30.51,NW,315,0.0,7.0,0,0.00,,,0.00,Weather View 32 v70,2013-11-05 09:17:00,
2013-11-05 04:22:00,36.5,0.0,30.53,NW,315,0.0,7.0,0,0.00,,,0.00,Weather View 32 v70,2013-11-05 09:22:00,
2013-11-05 04:27:00,36.7,0.0,30.53,WNW,293,0.0,6.0,0,0.00,,,0.00,Weather View 32 v70,2013-11-05 09:27:00,
2013-11-05 04:32:00,37.0,0.0,30.53,NNW,338,4.0,6.0,0,0.00,,,0.00,Weather View 32 v70,2013-11-05 09:32:00,
2013-11-05 04:37:00,37.0,0.0,30.53,NNW,338,2.0,7.0,0,0.00,,,0.00,Weather View 32 v70,2013-11-05 09:37:00,
2013-11-05 04:42:00,37.2,0.0,30.53,NNW,338,2.0,7.0,0,0.00,,,0.00,Weather View 32 v70,2013-11-05 09:42:00,
2013-11-05 04:47:00,37.4,0.0,30.55,North,0,2.0,7.0,0,0.00,,,0.00,Weather View 32 v70,2013-11-05 09:47:00,
2013-11-05 04:52:00,37.4,0.0,30.56,NW,315,1.0,7.0,0,0.00,,,0.00,Weather View 32 v70,2013-11-05 09:52:00,
2013-11-05 04:57:00,37.6,0.0,30.55,WNW,293,1.0,7.0,0,0.00,,,0.00,Weather View 32 v70,2013-11-05 09:57:00,
2013-11-05 05:02:00,37.8,0.0,30.54,WNW,293,0.0,7.0,0,0.00,,,0.00,Weather View 32 v70,2013-11-05 10:02:00,
2013-11-05 05:07:00,37.9,0.0,30.55,NW,315,1.0,7.0,0,0.00,,,0.00,Weather View 32 v70,2013-11-05 10:07:00,
2013-11-05 05:12:00,38.1,0.0,30.54,WNW,293,1.0,9.0,0,0.00,,,0.00,Weather View 32 v70,2013-11-05 10:12:00,
2013-11-05 05:17:00,37.8,0.0,30.54,WNW,293,1.0,10.0,0,0.00,,,0.00,Weather View 32 v70,2013-11-05 10:17:00,
2013-11-05 05:22:00,37.6,0.0,30.55,NNE,23,4.0,10.0,0,0.00,,,0.00,Weather View 32 v70,2013-11-05 10:22:00,
2013-11-05 05:27:00,37.9,0.0,30.53,NNE,23,8.0,10.0,0,0.00,,,0.00,Weather View 32 v70,2013-11-05 10:27:00,
2013-11-05 05:32:00,38.3,0.0,30.56,North,0,5.0,11.0,0,0.00,,,0.00,Weather View 32 v70,2013-11-05 10:32:00,
2013-11-05 05:37:00,38.3,0.0,30.55,NNW,338,3.0,11.0,0,0.00,,,0.00,Weather View 32 v70,2013-11-05 10:37:00,
2013-11-05 05:42:00,38.5,0.0,30.53,NNE,23,5.0,11.0,0,0.00,,,0.00,Weather View 32 v70,2013-11-05 10:42:00,
2013-11-05 05:47:00,38.8,0.0,30.55,NW,315,3.0,11.0,0,0.00,,,0.00,Weather View 32 v70,2013-11-05 10:47:00,
2013-11-05 05:52:00,39.0,0.0,30.54,West,270,4.0,11.0,0,0.00,,,0.00,Weather View 32 v70,2013-11-05 10:52:00,
2013-11-05 05:57:00,39.0,0.0,30.55,NNW,338,4.0,11.0,0,0.00,,,0.00,Weather View 32 v70,2013-11-05 10:57:00,
2013-11-05 06:02:00,39.2,0.0,30.53,WNW,293,3.0,11.0,0,0.00,,,0.00,Weather View 32 v70,2013-11-05 11:02:00,
2013-11-05 06:07:00,38.8,0.0,30.53,North,0,5.0,11.0,0,0.00,,,0.00,Weather View 32 v70,2013-11-05 11:07:00,
2013-11-05 06:12:00,38.8,0.0,30.56,NNE,23,3.0,11.0,0,0.00,,,0.00,Weather View 32 v70,2013-11-05 11:12:00,
2013-11-05 06:17:00,38.7,0.0,30.53,NNE,23,2.0,11.0,0,0.00,,,0.00,Weather View 32 v70,2013-11-05 11:17:00,
2013-11-05 06:22:00,38.8,0.0,30.54,NNE,23,3.0,11.0,0,0.00,,,0.00,Weather View 32 v70,2013-11-05 11:22:00,
2013-11-05 06:27:00,38.8,0.0,30.54,NNE,23,5.0,11.0,0,0.00,,,0.00,Weather View 32 v70,2013-11-05 11:27:00,
2013-11-05 06:32:00,38.7,0.0,30.54,North,0,5.0,11.0,0,0.00,,,0.00,Weather View 32 v70,2013-11-05 11:32:00,
2013-11-05 06:37:00,38.8,0.0,30.53,NNW,338,5.0,11.0,0,0.00,,,0.00,Weather View 32 v70,2013-11-05 11:37:00,
2013-11-05 06:42:00,39.2,0.0,30.54,NW,315,0.0,11.0,0,0.00,,,0.00,Weather View 32 v70,2013-11-05 11:42:00,
2013-11-05 06:47:00,38.8,0.0,30.54,North,0,3.0,11.0,0,0.00,,,0.00,Weather View 32 v70,2013-11-05 11:47:00,
2013-11-05 06:52:00,38.8,0.0,30.54,NNE,23,4.0,11.0,0,0.00,,,0.00,Weather View 32 v70,2013-11-05 11:52:00,
2013-11-05 06:57:00,39.2,0.0,30.54,NNW,338,3.0,11.0,0,0.00,,,0.00,Weather View 32 v70,2013-11-05 11:57:00,
2013-11-05 07:02:00,39.4,0.0,30.56,North,0,3.0,11.0,0,0.00,,,0.00,Weather View 32 v70,2013-11-05 12:02:00,
2013-11-05 07:07:00,39.6,0.0,30.54,NNW,338,4.0,11.0,0,0.00,,,0.00,Weather View 32 v70,2013-11-05 12:07:00,
2013-11-05 07:12:00,39.6,0.0,30.54,NNE,23,3.0,11.0,0,0.00,,,0.00,Weather View 32 v70,2013-11-05 12:12:00,
2013-11-05 07:17:00,39.7,0.0,30.52,NW,315,3.0,11.0,0,0.00,,,0.00,Weather View 32 v70,2013-11-05 12:17:00,
2013-11-05 07:22:00,39.9,0.0,30.53,North,0,5.0,12.0,0,0.00,,,0.00,Weather View 32 v70,2013-11-05 12:22:00,
2013-11-05 07:27:00,39.9,0.0,30.54,NNW,338,3.0,12.0,0,0.00,,,0.00,Weather View 32 v70,2013-11-05 12:27:00,
2013-11-05 07:32:00,40.1,0.0,30.53,NE,45,7.0,12.0,0,0.00,,,0.00,Weather View 32 v70,2013-11-05 12:32:00,
2013-11-05 07:37:00,40.1,0.0,30.53,NNW,338,5.0,12.0,0,0.00,,,0.00,Weather View 32 v70,2013-11-05 12:37:00,
2013-11-05 07:42:00,40.5,0.0,30.56,NNW,338,6.0,12.0,0,0.00,,,0.00,Weather View 32 v70,2013-11-05 12:42:00,
2013-11-05 07:47:00,40.5,0.0,30.54,North,0,4.0,12.0,0,0.00,,,0.00,Weather View 32 v70,2013-11-05 12:47:00,
2013-11-05 07:52:00,40.6,0.0,30.53,NNE,23,8.0,12.0,0,0.00,,,0.00,Weather View 32 v70,2013-11-05 12:52:00,
2013-11-05 07:57:00,40.8,0.0,30.54,NNW,338,1.0,12.0,0,0.00,,,0.00,Weather View 32 v70,2013-11-05 12:57:00,
2013-11-05 08:02:00,40.8,0.0,30.54,North,0,2.0,12.0,0,0.00,,,0.00,Weather View 32 v70,2013-11-05 13:02:00,
2013-11-05 08:07:00,41.4,0.0,30.55,NNE,23,7.0,12.0,0,0.00,,,0.00,Weather View 32 v70,2013-11-05 13:07:00,
2013-11-05 08:12:00,41.4,0.0,30.55,NW,315,3.0,12.0,0,0.00,,,0.00,Weather View 32 v70,2013-11-05 13:12:00,
2013-11-05 08:17:00,41.7,0.0,30.55,NNE,23,4.0,12.0,0,0.00,,,0.00,Weather View 32 v70,2013-11-05 13:17:00,
2013-11-05 08:22:00,42.1,0.0,30.56,NNE,23,7.0,11.0,0,0.00,,,0.00,Weather View 32 v70,2013-11-05 13:22:00,
2013-11-05 08:27:00,42.3,0.0,30.55,NNW,338,3.0,11.0,0,0.00,,,0.00,Weather View 32 v70,2013-11-05 13:27:00,
2013-11-05 08:32:00,42.4,0.0,30.58,WNW,293,1.0,11.0,0,0.00,,,0.00,Weather View 32 v70,2013-11-05 13:32:00,
2013-11-05 08:37:00,42.8,0.0,30.56,NNE,23,7.0,11.0,0,0.00,,,0.00,Weather View 32 v70,2013-11-05 13:37:00,
2013-11-05 08:42:00,43.0,0.0,30.55,NNE,23,6.0,11.0,0,0.00,,,0.00,Weather View 32 v70,2013-11-05 13:42:00,
2013-11-05 08:47:00,43.2,0.0,30.55,NNE,23,7.0,14.0,0,0.00,,,0.00,Weather View 32 v70,2013-11-05 13:47:00,
2013-11-05 08:52:00,43.5,0.0,30.54,NW,315,2.0,14.0,0,0.00,,,0.00,Weather View 32 v70,2013-11-05 13:52:00,
2013-11-05 08:57:00,43.9,0.0,30.54,NNE,23,3.0,14.0,0,0.00,,,0.00,Weather View 32 v70,2013-11-05 13:57:00,
2013-11-05 09:02:00,43.9,0.0,30.56,WNW,293,4.0,14.0,0,0.00,,,0.00,Weather View 32 v70,2013-11-05 14:02:00,
2013-11-05 09:07:00,44.1,0.0,30.55,NNE,23,3.0,14.0,0,0.00,,,0.00,Weather View 32 v70,2013-11-05 14:07:00,
2013-11-05 09:12:00,44.4,0.0,30.55,North,0,1.0,14.0,0,0.00,,,0.00,Weather View 32 v70,2013-11-05 14:12:00,
2013-11-05 09:17:00,44.8,0.0,30.55,NNW,338,3.0,14.0,0,0.00,,,0.00,Weather View 32 v70,2013-11-05 14:17:00,
2013-11-05 09:22:00,44.4,0.0,30.55,NNE,23,6.0,14.0,0,0.00,,,0.00,Weather View 32 v70,2013-11-05 14:22:00,
2013-11-05 09:27:00,45.0,0.0,30.55,NE,45,7.0,14.0,0,0.00,,,0.00,Weather View 32 v70,2013-11-05 14:27:00,
2013-11-05 09:32:00,45.3,0.0,30.56,NNW,338,3.0,14.0,0,0.00,,,0.00,Weather View 32 v70,2013-11-05 14:32:00,
2013-11-05 09:37:00,45.9,0.0,30.55,NW,315,2.0,14.0,0,0.00,,,0.00,Weather View 32 v70,2013-11-05 14:37:00,
2013-11-05 09:42:00,46.0,0.0,30.55,NNW,338,3.0,14.0,0,0.00,,,0.00,Weather View 32 v70,2013-11-05 14:42:00,
2013-11-05 09:47:00,46.2,0.0,30.56,North,0,1.0,11.0,0,0.00,,,0.00,Weather View 32 v70,2013-11-05 14:47:00,
2013-11-05 09:52:00,46.4,0.0,30.57,North,0,3.0,12.0,0,0.00,,,0.00,Weather View 32 v70,2013-11-05 14:52:00,
2013-11-05 09:57:00,46.8,0.0,30.55,WNW,293,0.0,12.0,0,0.00,,,0.00,Weather View 32 v70,2013-11-05 14:57:00,
2013-11-05 10:02:00,47.5,0.0,30.56,North,0,5.0,12.0,0,0.00,,,0.00,Weather View 32 v70,2013-11-05 15:02:00,
2013-11-05 10:07:00,47.1,0.0,30.56,NNE,23,3.0,12.0,0,0.00,,,0.00,Weather View 32 v70,2013-11-05 15:07:00,
2013-11-05 10:12:00,47.5,0.0,30.57,WNW,293,2.0,15.0,0,0.00,,,0.00,Weather View 32 v70,2013-11-05 15:12:00,
2013-11-05 10:17:00,47.5,0.0,30.56,NW,315,3.0,15.0,0,0.00,,,0.00,Weather View 32 v70,2013-11-05 15:17:00,
2013-11-05 10:22:00,48.2,0.0,30.58,NNW,338,4.0,15.0,0,0.00,,,0.00,Weather View 32 v70,2013-11-05 15:22:00,
2013-11-05 10:27:00,48.4,0.0,30.59,NNE,23,6.0,15.0,0,0.00,,,0.00,Weather View 32 v70,2013-11-05 15:27:00,
2013-11-05 10:32:00,49.1,0.0,30.56,NW,315,1.0,15.0,0,0.00,,,0.00,Weather View 32 v70,2013-11-05 15:32:00,
2013-11-05 10:37:00,50.7,0.0,30.56,North,0,6.0,15.0,0,0.00,,,0.00,Weather View 32 v70,2013-11-05 15:37:00,
2013-11-05 10:42:00,52.0,0.0,30.55,NNE,23,5.0,15.0,0,0.00,,,0.00,Weather View 32 v70,2013-11-05 15:42:00,
2013-11-05 10:47:00,51.8,0.0,30.57,WNW,293,0.0,15.0,0,0.00,,,0.00,Weather View 32 v70,2013-11-05 15:47:00,
2013-11-05 10:52:00,50.9,0.0,30.56,NNW,338,4.0,15.0,0,0.00,,,0.00,Weather View 32 v70,2013-11-05 15:52:00,
2013-11-05 10:57:00,50.2,0.0,30.55,NNW,338,5.0,15.0,0,0.00,,,0.00,Weather View 32 v70,2013-11-05 15:57:00,
2013-11-05 11:02:00,50.9,0.0,30.55,North,0,3.0,15.0,0,0.00,,,0.00,Weather View 32 v70,2013-11-05 16:02:00,
2013-11-05 11:07:00,50.9,0.0,30.56,NW,315,6.0,15.0,0,0.00,,,0.00,Weather View 32 v70,2013-11-05 16:07:00,
2013-11-05 11:12:00,51.1,0.0,30.57,NNW,338,5.0,14.0,0,0.00,,,0.00,Weather View 32 v70,2013-11-05 16:12:00,
2013-11-05 11:17:00,50.9,0.0,30.55,WNW,293,0.0,14.0,0,0.00,,,0.00,Weather View 32 v70,2013-11-05 16:17:00,
2013-11-05 11:22:00,50.7,0.0,30.57,NNE,23,4.0,15.0,0,0.00,,,0.00,Weather View 32 v70,2013-11-05 16:22:00,
2013-11-05 11:27:00,51.6,0.0,30.55,NNW,338,8.0,15.0,0,0.00,,,0.00,Weather View 32 v70,2013-11-05 16:27:00,
2013-11-05 11:32:00,51.3,0.0,30.54,North,0,4.0,15.0,0,0.00,,,0.00,Weather View 32 v70,2013-11-05 16:32:00,
2013-11-05 11:37:00,52.2,0.0,30.53,West,270,2.0,15.0,0,0.00,,,0.00,Weather View 32 v70,2013-11-05 16:37:00,
2013-11-05 11:42:00,52.7,0.0,30.55,North,0,6.0,15.0,0,0.00,,,0.00,Weather View 32 v70,2013-11-05 16:42:00,
2013-11-05 11:47:00,52.9,0.0,30.53,NNW,338,4.0,15.0,0,0.00,,,0.00,Weather View 32 v70,2013-11-05 16:47:00,
2013-11-05 11:52:00,54.0,0.0,30.53,NW,315,0.0,15.0,0,0.00,,,0.00,Weather View 32 v70,2013-11-05 16:52:00,
2013-11-05 11:57:00,54.7,0.0,30.52,WNW,293,2.0,15.0,0,0.00,,,0.00,Weather View 32 v70,2013-11-05 16:57:00,
2013-11-05 12:02:00,54.0,0.0,30.52,East,90,3.0,15.0,0,0.00,,,0.00,Weather View 32 v70,2013-11-05 17:02:00,
2013-11-05 12:07:00,53.6,0.0,30.53,NW,315,7.0,15.0,0,0.00,,,0.00,Weather View 32 v70,2013-11-05 17:07:00,
2013-11-05 12:12:00,54.1,0.0,30.50,NNE,23,0.0,15.0,0,0.00,,,0.00,Weather View 32 v70,2013-11-05 17:12:00,
2013-11-05 12:17:00,54.5,0.0,30.51,NNE,23,6.0,15.0,0,0.00,,,0.00,Weather View 32 v70,2013-11-05 17:17:00,
2013-11-05 12:22:00,53.4,0.0,30.54,WNW,293,0.0,11.0,0,0.00,,,0.00,Weather View 32 v70,2013-11-05 17:22:00,
2013-11-05 12:27:00,54.0,0.0,30.51,East,90,2.0,11.0,0,0.00,,,0.00,Weather View 32 v70,2013-11-05 17:27:00,
2013-11-05 12:32:00,54.0,0.0,30.52,NNE,23,5.0,10.0,0,0.00,,,0.00,Weather View 32 v70,2013-11-05 17:32:00,
2013-11-05 12:37:00,54.5,0.0,30.52,North,0,6.0,10.0,0,0.00,,,0.00,Weather View 32 v70,2013-11-05 17:37:00,
2013-11-05 12:42:00,54.7,0.0,30.51,NW,315,3.0,10.0,0,0.00,,,0.00,Weather View 32 v70,2013-11-05 17:42:00,
2013-11-05 12:47:00,54.9,0.0,30.50,NW,315,0.0,10.0,0,0.00,,,0.00,Weather View 32 v70,2013-11-05 17:47:00,
2013-11-05 12:52:00,54.3,0.0,30.49,NNW,338,7.0,10.0,0,0.00,,,0.00,Weather View 32 v70,2013-11-05 17:52:00,
2013-11-05 12:57:00,54.5,0.0,30.49,NNE,23,4.0,10.0,0,0.00,,,0.00,Weather View 32 v70,2013-11-05 17:57:00,
2013-11-05 13:02:00,55.0,0.0,30.50,NNE,23,2.0,9.0,0,0.00,,,0.00,Weather View 32 v70,2013-11-05 18:02:00,
2013-11-05 13:07:00,56.5,0.0,30.49,NNE,23,4.0,9.0,0,0.00,,,0.00,Weather View 32 v70,2013-11-05 18:07:00,
2013-11-05 13:12:00,55.6,0.0,30.48,NW,315,3.0,9.0,0,0.00,,,0.00,Weather View 32 v70,2013-11-05 18:12:00,
2013-11-05 13:17:00,55.4,0.0,30.50,North,0,5.0,9.0,0,0.00,,,0.00,Weather View 32 v70,2013-11-05 18:17:00,
2013-11-05 13:22:00,55.8,0.0,30.50,NNW,338,4.0,9.0,0,0.00,,,0.00,Weather View 32 v70,2013-11-05 18:22:00,
2013-11-05 13:27:00,55.9,0.0,30.49,ENE,68,2.0,9.0,0,0.00,,,0.00,Weather View 32 v70,2013-11-05 18:27:00,
2013-11-05 13:32:00,56.3,0.0,30.47,East,90,4.0,10.0,0,0.00,,,0.00,Weather View 32 v70,2013-11-05 18:32:00,
2013-11-05 13:37:00,57.4,0.0,30.48,NW,315,0.0,10.0,0,0.00,,,0.00,Weather View 32 v70,2013-11-05 18:37:00,
2013-11-05 13:42:00,56.7,0.0,30.49,North,0,2.0,10.0,0,0.00,,,0.00,Weather View 32 v70,2013-11-05 18:42:00,
2013-11-05 13:47:00,55.4,0.0,30.47,North,0,0.0,10.0,0,0.00,,,0.00,Weather View 32 v70,2013-11-05 18:47:00,
2013-11-05 13:52:00,55.4,0.0,30.49,WNW,293,2.0,10.0,0,0.00,,,0.00,Weather View 32 v70,2013-11-05 18:52:00,
2013-11-05 13:57:00,55.2,0.0,30.49,NNW,338,4.0,10.0,0,0.00,,,0.00,Weather View 32 v70,2013-11-05 18:57:00,
2013-11-05 14:02:00,55.4,0.0,30.48,NNE,23,7.0,10.0,0,0.00,,,0.00,Weather View 32 v70,2013-11-05 19:02:00,
2013-11-05 14:07:00,56.3,0.0,30.47,NNW,338,4.0,10.0,0,0.00,,,0.00,Weather View 32 v70,2013-11-05 19:07:00,
2013-11-05 14:12:00,56.8,0.0,30.48,NE,45,7.0,10.0,0,0.00,,,0.00,Weather View 32 v70,2013-11-05 19:12:00,
2013-11-05 14:17:00,56.5,0.0,30.46,North,0,2.0,10.0,0,0.00,,,0.00,Weather View 32 v70,2013-11-05 19:17:00,
2013-11-05 14:22:00,56.7,0.0,30.45,ESE,113,2.0,10.0,0,0.00,,,0.00,Weather View 32 v70,2013-11-05 19:22:00,
2013-11-05 14:27:00,56.3,0.0,30.45,NNW,338,4.0,10.0,0,0.00,,,0.00,Weather View 32 v70,2013-11-05 19:27:00,
2013-11-05 14:32:00,55.6,0.0,30.45,NW,315,0.0,10.0,0,0.00,,,0.00,Weather View 32 v70,2013-11-05 19:32:00,
2013-11-05 14:37:00,55.8,0.0,30.46,NW,315,0.0,10.0,0,0.00,,,0.00,Weather View 32 v70,2013-11-05 19:37:00,
2013-11-05 14:42:00,55.9,0.0,30.46,North,0,5.0,10.0,0,0.00,,,0.00,Weather View 32 v70,2013-11-05 19:42:00,
2013-11-05 14:47:00,56.3,0.0,30.46,ENE,68,1.0,10.0,0,0.00,,,0.00,Weather View 32 v70,2013-11-05 19:47:00,
2013-11-05 14:52:00,56.8,0.0,30.47,NE,45,4.0,10.0,0,0.00,,,0.00,Weather View 32 v70,2013-11-05 19:52:00,
2013-11-05 14:57:00,57.2,0.0,30.47,NNW,338,1.0,9.0,0,0.00,,,0.00,Weather View 32 v70,2013-11-05 19:57:00,
2013-11-05 15:02:00,56.7,0.0,30.46,NNE,23,3.0,9.0,0,0.00,,,0.00,Weather View 32 v70,2013-11-05 20:02:00,
2013-11-05 15:07:00,56.1,0.0,30.47,WNW,293,0.0,9.0,0,0.00,,,0.00,Weather View 32 v70,2013-11-05 20:07:00,
2013-11-05 15:12:00,56.3,0.0,30.47,NW,315,0.0,9.0,0,0.00,,,0.00,Weather View 32 v70,2013-11-05 20:12:00,
2013-11-05 15:17:00,56.7,0.0,30.48,ENE,68,3.0,9.0,0,0.00,,,0.00,Weather View 32 v70,2013-11-05 20:17:00,
2013-11-05 15:22:00,56.8,0.0,30.47,NNW,338,2.0,9.0,0,0.00,,,0.00,Weather View 32 v70,2013-11-05 20:22:00,
2013-11-05 15:27:00,56.5,0.0,30.48,WNW,293,0.0,9.0,0,0.00,,,0.00,Weather View 32 v70,2013-11-05 20:27:00,
2013-11-05 15:32:00,56.8,0.0,30.48,NNW,338,2.0,9.0,0,0.00,,,0.00,Weather View 32 v70,2013-11-05 20:32:00,
2013-11-05 15:37:00,57.0,0.0,30.47,WNW,293,0.0,9.0,0,0.00,,,0.00,Weather View 32 v70,2013-11-05 20:37:00,
2013-11-05 15:42:00,56.8,0.0,30.46,NW,315,1.0,9.0,0,0.00,,,0.00,Weather View 32 v70,2013-11-05 20:42:00,
2013-11-05 15:47:00,56.7,0.0,30.46,NNE,23,2.0,9.0,0,0.00,,,0.00,Weather View 32 v70,2013-11-05 20:47:00,
2013-11-05 15:52:00,56.7,0.0,30.48,NNW,338,2.0,9.0,0,0.00,,,0.00,Weather View 32 v70,2013-11-05 20:52:00,
2013-11-05 15:57:00,56.7,0.0,30.48,WNW,293,0.0,9.0,0,0.00,,,0.00,Weather View 32 v70,2013-11-05 20:57:00,
2013-11-05 16:02:00,56.7,0.0,30.48,NE,45,4.0,9.0,0,0.00,,,0.00,Weather View 32 v70,2013-11-05 21:02:00,
2013-11-05 16:07:00,56.1,0.0,30.48,NNE,23,3.0,9.0,0,0.00,,,0.00,Weather View 32 v70,2013-11-05 21:07:00,
2013-11-05 16:12:00,55.9,0.0,30.49,NW,315,0.0,9.0,0,0.00,,,0.00,Weather View 32 v70,2013-11-05 21:12:00,
2013-11-05 16:18:00,55.9,0.0,30.47,NW,315,0.0,9.0,0,0.00,,,0.00,Weather View 32 v70,2013-11-05 21:18:00,
2013-11-05 16:23:00,55.9,0.0,30.50,WNW,293,1.0,6.0,0,0.00,,,0.00,Weather View 32 v70,2013-11-05 21:23:00,
2013-11-05 16:28:00,55.8,0.0,30.49,NW,315,0.0,6.0,0,0.00,,,0.00,Weather View 32 v70,2013-11-05 21:28:00,
2013-11-05 16:33:00,55.9,0.0,30.49,NW,315,0.0,6.0,0,0.00,,,0.00,Weather View 32 v70,2013-11-05 21:33:00,
2013-11-05 16:38:00,55.2,0.0,30.48,WNW,293,0.0,6.0,0,0.00,,,0.00,Weather View 32 v70,2013-11-05 21:38:00,
2013-11-05 16:43:00,55.4,0.0,30.43,NW,315,0.0,6.0,0,0.00,,,0.00,Weather View 32 v70,2013-11-05 21:43:00,
2013-11-05 16:48:00,55.4,0.0,30.50,WNW,293,0.0,6.0,0,0.00,,,0.00,Weather View 32 v70,2013-11-05 21:48:00,
2013-11-05 16:53:00,55.2,0.0,30.49,WNW,293,0.0,6.0,0,0.00,,,0.00,Weather View 32 v70,2013-11-05 21:53:00,
2013-11-05 16:58:00,55.0,0.0,30.45,North,0,3.0,6.0,0,0.00,,,0.00,Weather View 32 v70,2013-11-05 21:58:00,
2013-11-05 17:03:00,54.9,0.0,30.46,NNE,23,4.0,7.0,0,0.00,,,0.00,Weather View 32 v70,2013-11-05 22:03:00,
2013-11-05 17:08:00,54.7,0.0,30.46,NW,315,0.0,7.0,0,0.00,,,0.00,Weather View 32 v70,2013-11-05 22:08:00,
2013-11-05 17:13:00,55.0,0.0,30.48,NW,315,1.0,7.0,0,0.00,,,0.00,Weather View 32 v70,2013-11-05 22:13:00,
2013-11-05 17:18:00,54.9,0.0,30.48,NW,315,0.0,7.0,0,0.00,,,0.00,Weather View 32 v70,2013-11-05 22:18:00,
2013-11-05 17:23:00,54.7,0.0,30.47,NW,315,0.0,7.0,0,0.00,,,0.00,Weather View 32 v70,2013-11-05 22:23:00,
2013-11-05 17:28:00,54.5,0.0,30.46,NW,315,1.0,7.0,0,0.00,,,0.00,Weather View 32 v70,2013-11-05 22:28:00,
2013-11-05 17:33:00,54.3,0.0,30.47,NE,45,3.0,7.0,0,0.00,,,0.00,Weather View 32 v70,2013-11-05 22:33:00,
2013-11-05 17:38:00,54.3,0.0,30.45,NNE,23,1.0,7.0,0,0.00,,,0.00,Weather View 32 v70,2013-11-05 22:38:00,
2013-11-05 17:43:00,54.3,0.0,30.44,North,0,1.0,7.0,0,0.00,,,0.00,Weather View 32 v70,2013-11-05 22:43:00,
2013-11-05 17:48:00,54.0,0.0,30.45,NW,315,0.0,7.0,0,0.00,,,0.00,Weather View 32 v70,2013-11-05 22:48:00,
2013-11-05 17:53:00,54.0,0.0,30.46,NW,315,0.0,7.0,0,0.00,,,0.00,Weather View 32 v70,2013-11-05 22:53:00,
2013-11-05 17:58:00,53.8,0.0,30.47,NW,315,1.0,7.0,0,0.00,,,0.00,Weather View 32 v70,2013-11-05 22:58:00,
2013-11-05 18:03:00,54.1,0.0,30.50,NW,315,0.0,6.0,0,0.00,,,0.00,Weather View 32 v70,2013-11-05 23:03:00,
2013-11-05 18:08:00,54.0,0.0,30.48,WNW,293,0.0,6.0,0,0.00,,,0.00,Weather View 32 v70,2013-11-05 23:08:00,
2013-11-05 18:13:00,54.0,0.0,30.46,NW,315,0.0,6.0,0,0.00,,,0.00,Weather View 32 v70,2013-11-05 23:13:00,
2013-11-05 18:18:00,53.8,0.0,30.48,NW,315,0.0,6.0,0,0.00,,,0.00,Weather View 32 v70,2013-11-05 23:18:00,
2013-11-05 18:23:00,53.6,0.0,30.47,NNW,338,1.0,6.0,0,0.00,,,0.00,Weather View 32 v70,2013-11-05 23:23:00,
2013-11-05 18:28:00,53.6,0.0,30.47,NW,315,0.0,6.0,0,0.00,,,0.00,Weather View 32 v70,2013-11-05 23:28:00,
2013-11-05 18:33:00,53.6,0.0,30.48,NNE,23,2.0,6.0,0,0.00,,,0.00,Weather View 32 v70,2013-11-05 23:33:00,
2013-11-05 18:38:00,53.6,0.0,30.49,NW,315,0.0,6.0,0,0.00,,,0.00,Weather View 32 v70,2013-11-05 23:38:00,
2013-11-05 18:43:00,53.6,0.0,30.48,North,0,1.0,6.0,0,0.00,,,0.00,Weather View 32 v70,2013-11-05 23:43:00,
2013-11-05 18:48:00,53.6,0.0,30.47,NNW,338,2.0,5.0,0,0.00,,,0.00,Weather View 32 v70,2013-11-05 23:48:00,
2013-11-05 18:53:00,53.6,0.0,30.46,NW,315,0.0,5.0,0,0.00,,,0.00,Weather View 32 v70,2013-11-05 23:53:00,
2013-11-05 18:58:00,53.4,0.0,30.49,North,0,3.0,5.0,0,0.00,,,0.00,Weather View 32 v70,2013-11-05 23:58:00,
2013-11-05 19:03:00,53.4,0.0,30.48,NNW,338,1.0,5.0,0,0.00,,,0.00,Weather View 32 v70,2013-11-06 00:03:00,
2013-11-05 19:08:00,53.4,0.0,30.48,NNW,338,1.0,5.0,0,0.00,,,0.00,Weather View 32 v70,2013-11-06 00:08:00,
2013-11-05 19:13:00,53.4,0.0,30.47,NW,315,0.0,5.0,0,0.00,,,0.00,Weather View 32 v70,2013-11-06 00:13:00,
2013-11-05 19:18:00,53.4,0.0,30.49,NW,315,0.0,5.0,0,0.00,,,0.00,Weather View 32 v70,2013-11-06 00:18:00,
2013-11-05 19:23:00,53.2,0.0,30.49,NW,315,1.0,5.0,0,0.00,,,0.00,Weather View 32 v70,2013-11-06 00:23:00,
2013-11-05 19:28:00,53.2,0.0,30.49,WNW,293,0.0,5.0,0,0.00,,,0.00,Weather View 32 v70,2013-11-06 00:28:00,
2013-11-05 19:33:00,53.1,0.0,30.48,North,0,0.0,5.0,0,0.00,,,0.00,Weather View 32 v70,2013-11-06 00:33:00,
2013-11-05 19:38:00,53.1,0.0,30.46,North,0,1.0,5.0,0,0.00,,,0.00,Weather View 32 v70,2013-11-06 00:38:00,
2013-11-05 19:43:00,53.1,0.0,30.46,NNE,23,3.0,5.0,0,0.00,,,0.00,Weather View 32 v70,2013-11-06 00:43:00,
2013-11-05 19:48:00,53.1,0.0,30.48,NW,315,0.0,5.0,0,0.00,,,0.00,Weather View 32 v70,2013-11-06 00:48:00,
2013-11-05 19:53:00,52.7,0.0,30.45,North,0,0.0,5.0,0,0.00,,,0.00,Weather View 32 v70,2013-11-06 00:53:00,
2013-11-05 19:58:00,53.2,0.0,30.46,NW,315,1.0,5.0,0,0.00,,,0.00,Weather View 32 v70,2013-11-06 00:58:00,
2013-11-05 20:03:00,53.1,0.0,30.48,NW,315,0.0,5.0,0,0.00,,,0.00,Weather View 32 v70,2013-11-06 01:03:00,
2013-11-05 20:08:00,52.9,0.0,30.48,North,0,3.0,5.0,0,0.00,,,0.00,Weather View 32 v70,2013-11-06 01:08:00,
2013-11-05 20:13:00,52.7,0.0,30.50,NNW,338,0.0,5.0,0,0.00,,,0.00,Weather View 32 v70,2013-11-06 01:13:00,
2013-11-05 20:18:00,52.5,0.0,30.49,NW,315,0.0,5.0,0,0.00,,,0.00,Weather View 32 v70,2013-11-06 01:18:00,
2013-11-05 20:23:00,52.5,0.0,30.48,NW,315,0.0,5.0,0,0.00,,,0.00,Weather View 32 v70,2013-11-06 01:23:00,
2013-11-05 20:28:00,52.5,0.0,30.47,North,0,0.0,5.0,0,0.00,,,0.00,Weather View 32 v70,2013-11-06 01:28:00,
2013-11-05 20:33:00,52.3,0.0,30.48,NW,315,0.0,5.0,0,0.00,,,0.00,Weather View 32 v70,2013-11-06 01:33:00,
2013-11-05 20:38:00,52.5,0.0,30.47,NW,315,1.0,5.0,0,0.00,,,0.00,Weather View 32 v70,2013-11-06 01:38:00,
2013-11-05 20:43:00,52.3,0.0,30.48,NW,315,0.0,5.0,0,0.00,,,0.00,Weather View 32 v70,2013-11-06 01:43:00,
2013-11-05 20:48:00,52.5,0.0,30.46,North,0,1.0,5.0,0,0.00,,,0.00,Weather View 32 v70,2013-11-06 01:48:00,
2013-11-05 20:53:00,52.2,0.0,30.47,NW,315,2.0,5.0,0,0.00,,,0.00,Weather View 32 v70,2013-11-06 01:53:00,
2013-11-05 20:58:00,52.5,0.0,30.47,NW,315,0.0,5.0,0,0.00,,,0.00,Weather View 32 v70,2013-11-06 01:58:00,
2013-11-05 21:03:00,52.5,0.0,30.48,NNW,338,0.0,5.0,0,0.00,,,0.00,Weather View 32 v70,2013-11-06 02:03:00,
2013-11-05 21:08:00,52.3,0.0,30.48,NW,315,1.0,5.0,0,0.00,,,0.00,Weather View 32 v70,2013-11-06 02:08:00,
2013-11-05 21:13:00,52.3,0.0,30.47,WNW,293,0.0,5.0,0,0.00,,,0.00,Weather View 32 v70,2013-11-06 02:13:00,
2013-11-05 21:18:00,52.3,0.0,30.48,NNW,338,2.0,5.0,0,0.00,,,0.00,Weather View 32 v70,2013-11-06 02:18:00,
2013-11-05 21:23:00,52.3,0.0,30.49,NNE,23,1.0,5.0,0,0.00,,,0.00,Weather View 32 v70,2013-11-06 02:23:00,
2013-11-05 21:28:00,52.0,0.0,30.45,NNE,23,4.0,5.0,0,0.00,,,0.00,Weather View 32 v70,2013-11-06 02:28:00,
2013-11-05 21:33:00,52.2,0.0,30.45,WNW,293,1.0,5.0,0,0.00,,,0.00,Weather View 32 v70,2013-11-06 02:33:00,
2013-11-05 21:38:00,52.2,0.0,30.45,NNW,338,1.0,6.0,0,0.00,,,0.00,Weather View 32 v70,2013-11-06 02:38:00,
2013-11-05 21:43:00,52.2,0.0,30.48,NW,315,0.0,6.0,0,0.00,,,0.00,Weather View 32 v70,2013-11-06 02:43:00,
2013-11-05 21:48:00,52.0,0.0,30.48,NNW,338,1.0,6.0,0,0.00,,,0.00,Weather View 32 v70,2013-11-06 02:48:00,
2013-11-05 21:53:00,52.0,0.0,30.47,NW,315,1.0,6.0,0,0.00,,,0.00,Weather View 32 v70,2013-11-06 02:53:00,
2013-11-05 21:58:00,52.2,0.0,30.46,NW,315,0.0,6.0,0,0.00,,,0.00,Weather View 32 v70,2013-11-06 02:58:00,
2013-11-05 22:03:00,52.0,0.0,30.47,NW,315,0.0,6.0,0,0.00,,,0.00,Weather View 32 v70,2013-11-06 03:03:00,
2013-11-05 22:08:00,52.0,0.0,30.46,WNW,293,1.0,6.0,0,0.00,,,0.00,Weather View 32 v70,2013-11-06 03:08:00,
2013-11-05 22:13:00,52.0,0.0,30.47,NW,315,1.0,6.0,0,0.00,,,0.00,Weather View 32 v70,2013-11-06 03:13:00,
2013-11-05 22:18:00,52.0,0.0,30.48,North,0,4.0,6.0,0,0.00,,,0.00,Weather View 32 v70,2013-11-06 03:18:00,
2013-11-05 22:23:00,52.0,0.0,30.47,NW,315,0.0,6.0,0,0.00,,,0.00,Weather View 32 v70,2013-11-06 03:23:00,
2013-11-05 22:28:00,52.2,0.0,30.45,WNW,293,0.0,6.0,0,0.00,,,0.00,Weather View 32 v70,2013-11-06 03:28:00,
2013-11-05 22:33:00,52.0,0.0,30.46,NW,315,0.0,6.0,0,0.00,,,0.00,Weather View 32 v70,2013-11-06 03:33:00,
2013-11-05 22:38:00,51.8,0.0,30.47,WNW,293,0.0,6.0,0,0.00,,,0.00,Weather View 32 v70,2013-11-06 03:38:00,
2013-11-05 22:43:00,51.8,0.0,30.45,NW,315,0.0,6.0,0,0.00,,,0.00,Weather View 32 v70,2013-11-06 03:43:00,
2013-11-05 22:48:00,51.8,0.0,30.44,NW,315,0.0,5.0,0,0.00,,,0.00,Weather View 32 v70,2013-11-06 03:48:00,
2013-11-05 22:53:00,51.1,0.0,30.46,NW,315,0.0,5.0,0,0.00,,,0.00,Weather View 32 v70,2013-11-06 03:53:00,
2013-11-05 22:58:00,51.4,0.0,30.47,NW,315,0.0,5.0,0,0.00,,,0.00,Weather View 32 v70,2013-11-06 03:58:00,
2013-11-05 23:03:00,51.4,0.0,30.46,North,0,3.0,5.0,0,0.00,,,0.00,Weather View 32 v70,2013-11-06 04:03:00,
2013-11-05 23:08:00,51.4,0.0,30.46,NW,315,0.0,5.0,0,0.00,,,0.00,Weather View 32 v70,2013-11-06 04:08:00,
2013-11-05 23:13:00,51.3,0.0,30.47,NNW,338,1.0,5.0,0,0.00,,,0.00,Weather View 32 v70,2013-11-06 04:13:00,
2013-11-05 23:18:00,50.9,0.0,30.44,NNW,338,2.0,5.0,0,0.00,,,0.00,Weather View 32 v70,2013-11-06 04:18:00,
2013-11-05 23:23:00,50.7,0.0,30.44,NW,315,0.0,5.0,0,0.00,,,0.00,Weather View 32 v70,2013-11-06 04:23:00,
2013-11-05 23:28:00,50.9,0.0,30.45,NW,315,0.0,5.0,0,0.00,,,0.00,Weather View 32 v70,2013-11-06 04:28:00,
2013-11-05 23:33:00,50.5,0.0,30.47,North,0,2.0,5.0,0,0.00,,,0.00,Weather View 32 v70,2013-11-06 04:33:00,
2013-11-05 23:38:00,50.5,0.0,30.44,NW,315,0.0,5.0,0,0.00,,,0.00,Weather View 32 v70,2013-11-06 04:38:00,
2013-11-05 23:43:00,50.4,0.0,30.45,NW,315,1.0,5.0,0,0.00,,,0.00,Weather View 32 v70,2013-11-06 04:43:00,
2013-11-05 23:48:00,50.0,0.0,30.45,NW,315,1.0,5.0,0,0.00,,,0.00,Weather View 32 v70,2013-11-06 04:48:00,
2013-11-05 23:53:00,50.0,0.0,30.44,NNW,338,0.0,5.0,0,0.00,,,0.00,Weather View 32 v70,2013-11-06 04:53:00,
2013-11-05 23:58:00,49.8,0.0,30.43,NW,315,1.0,5.0,0,0.00,,,0.00,Weather View 32 v70,2013-11-06 04:58:00,